Hourly Data Report for July 21, 2021

DRYDEN REGIONAL
ONTARIO
Current Station Operator: NAVCAN

49°49'39.000" N
92°44'39.000" W
412.70 m
6032125
71527
YHD

Download Data

Hourly Data (July 2021)
Hourly Data Report for July 21, 2021
TIME
LST
Temp Definition
°C
Dew Point Definition
°C
Rel Hum Definition
%
Precip. Amount Definition
mm

Wind Dir Definition
10's deg

Wind Spd Definition
km/h
Visibility Definition
km
Stn Press Definition
kPa
Hmdx Definition


Wind Chill Definition


Weather Definition


00:00 14.7 12.9 89 0.0 9 4 16.1 97.24     LegendNANA
01:00 13.9 11.6 86 0.0 7 5 16.1 97.19     LegendNANA
02:00 13.6 12.5 93 0.0 7 5 16.1 97.19     LegendNANA
03:00 13.9 12.4 90 0.0 13 11 16.1 97.19     LegendNANA
04:00 14.6 13.8 95 0.0 17 13 16.1 97.22     LegendNANA
05:00 16.0 15.2 95 0.0 16 9 6.4 97.23     Fog
06:00 16.5 14.8 89 0.0 14 11 16.1 97.24     LegendNANA
07:00 16.5 12.1 75 0.0 16 17 16.1 97.26     LegendNANA
08:00 18.0 10.5 61 0.0 17 18 16.1 97.21     LegendNANA
09:00 18.4 9.1 54 0.0 17 13 16.1 97.19     LegendNANA
10:00 19.3 5.9 41 0.0 20 24 16.1 97.20     LegendNANA
11:00 19.3 3.1 34 0.0 17 17 16.1 97.23     LegendNANA
12:00 19.7 5.1 38 0.0 17 22 16.1 97.18     LegendNANA
13:00 19.3 6.9 44 0.0 17 18 16.1 97.18     LegendNANA
14:00 19.0 7.9 48 0.0 16 13 16.1 97.13     LegendNANA
15:00 19.2 9.6 53 0.0 18 9 16.1 97.11     LegendNANA
16:00 18.9 10.2 57 0.0 18 15 16.1 97.08     LegendNANA
17:00 18.5 10.4 59 0.0 18 11 16.1 97.07     LegendNANA
18:00 17.7 11.1 65 0.0 20 15 16.1 97.05     LegendNANA
19:00 16.9 12.2 74 0.0 20 13 16.1 97.03     LegendNANA
20:00 16.8 12.0 73 0.0 18 18 16.1 96.97     LegendNANA
21:00 16.9 12.3 74 0.0 18 15 16.1 96.98     LegendNANA
22:00 17.2 11.1 67 0.0 17 11 16.1 97.03     LegendNANA
23:00 17.2 10.6 65 0.0 19 5 16.1 97.04     LegendNANA

Notes on Data Quality.

Legend

  • E = Estimated
  • M = Missing
  • NA = Not Available*
  • [empty] = Indicates an unobserved value
Date modified: